Location: Cran-Gévrier
(45.9039°N, 6.1012°E)
Time: 06:40:24
(UTC+00:00)

COSMOS 2428 - Visible Passes

Search period start: 30 September 2023 00:00
Search period end: 10 October 2023 00:00
Orbit: 846 x 855 km, 70.9° (Epoch: 29 September)

Date Brightness Start Highest point End Pass type
(mag) Time Alt. Az. Time Alt. Az. Time Alt. Az.
30 Sep 5.4 01:50:11 10° N 01:53:29 15° NE 01:56:48 10° ENE visible
30 Sep 3.0 03:33:09 10° NNW 03:38:51 69° ENE 03:44:31 10° SE visible
30 Sep 2.7 18:28:17 10° SSW 18:33:57 89° ESE 18:39:41 10° NNE visible
30 Sep 5.2 20:15:02 10° W 20:19:01 19° NW 20:23:02 10° N visible
01 Oct 5.4 01:37:48 10° N 01:41:06 15° NE 01:44:23 10° ENE visible
01 Oct 3.0 03:20:45 10° NNW 03:26:27 69° ENE 03:32:08 10° SE visible
01 Oct 2.7 18:15:53 10° SSW 18:21:33 89° ESE 18:27:16 10° NNE visible
01 Oct 5.2 20:02:38 10° W 20:06:37 19° NW 20:10:38 10° N visible
02 Oct 5.4 01:25:24 10° N 01:28:41 15° NE 01:31:59 10° ENE visible
02 Oct 3.0 03:08:22 10° NNW 03:14:03 69° ENE 03:19:44 10° SE visible
02 Oct 3.9 04:53:46 10° NW 04:57:43 20° W 05:01:40 10° SW visible
02 Oct 2.7 18:03:29 10° SSW 18:09:10 89° ESE 18:14:53 10° NNE visible
02 Oct 5.2 19:50:14 10° W 19:54:13 19° NW 19:58:14 10° N visible
03 Oct 5.3 01:13:01 10° N 01:16:17 15° NE 01:19:34 10° ENE visible
03 Oct 2.9 02:55:58 10° NNW 03:01:40 69° ENE 03:07:20 10° SE visible
03 Oct 3.9 04:41:21 10° NW 04:45:20 20° W 04:49:17 10° SW visible
03 Oct 2.7 17:51:05 10° SSW 17:56:46 89° ESE 18:02:29 10° NNE visible
03 Oct 5.2 19:37:49 10° W 19:41:49 19° NW 19:45:51 10° N visible
04 Oct 5.3 01:00:37 10° N 01:03:54 15° NE 01:07:10 10° ENE visible
04 Oct 2.9 02:43:34 10° NNW 02:49:16 68° ENE 02:54:57 10° SE visible
04 Oct 3.9 04:28:57 10° NW 04:32:56 20° W 04:36:54 10° SW visible
04 Oct 2.8 17:38:41 10° SSW 17:44:22 89° ESE 17:50:06 10° NNE visible
04 Oct 5.2 19:25:25 10° W 19:29:25 19° NW 19:33:27 10° N visible
05 Oct 5.3 00:48:14 10° N 00:57:10 - E 00:50:35 15° NNE visible
05 Oct 3.9 02:31:10 10° NNW 02:39:34 32° SE 02:42:33 10° SE visible
05 Oct 4.0 04:21:56 18° WSW 04:21:56 18° WSW 04:24:30 10° SW visible
05 Oct 2.8 17:26:18 10° SSW 17:31:59 88° ESE 17:37:41 10° NNE visible
05 Oct 5.2 19:13:00 10° W 19:17:02 19° NW 19:21:04 10° N visible
06 Oct 5.6 00:35:50 10° N 00:36:13 11° N 00:36:13 11° N visible
06 Oct5.402:31:28SSE02:31:28SSE02:18:06NNWvisible
06 Oct 5.2 19:00:36 10° W 19:04:37 19° NW 19:08:40 10° N visible
07 Oct 5.2 18:48:12 10° W 18:52:14 19° NW 18:56:16 10° N visible
08 Oct 5.2 18:35:47 10° W 18:39:50 19° NW 18:43:52 10° N visible
09 Oct 5.2 18:23:22 10° W 18:27:25 20° NW 18:31:29 10° N visible
